#timestamp,LO_Frequency,Hit,StdDev 
1501304415.2,286047001.9,N,1.0
1501304435.1,286047002.5,N,1.0
1501304436.0,286047002.5,P,0.6
1501304455.8,286047000.2,N,0.9
1501304475.7,286046999.8,N,1.1
1501304495.5,286047000.3,N,1.0
1501304515.4,286047000.0,N,0.9
1501304535.2,286047000.3,N,0.9
1501304555.0,286047000.0,N,0.9
1501304555.9,286047000.0,N,0.8
1501304575.8,286047000.7,N,0.8
1501304595.6,286047000.4,N,0.7
1501304615.5,286047001.0,N,0.7
1501304635.3,286047000.6,N,0.7
1501304655.1,286047000.9,N,0.7
1501304675.9,286047001.2,N,0.7
1501304695.7,286047000.6,N,0.7
1501304715.6,286047000.7,N,0.6
1501304735.4,286047000.2,N,0.6
1501304755.2,286047002.4,P,0.9
1501304775.1,286047000.6,N,0.8
1501304776.0,286047000.6,N,0.8
1501304795.8,286047000.3,N,0.8
1501304815.7,286047000.2,N,0.7
1501304835.5,286047000.5,N,0.7
1501304855.3,286046998.1,N,1.1
1501304875.2,286046998.2,N,1.2
1501304895.0,286047000.7,N,1.2
1501304895.9,286047000.7,N,1.1
1501304915.8,286046998.6,N,1.2
1501304935.6,286046998.5,N,1.2
1501304955.4,286046999.0,N,1.2
1501304975.3,286046999.5,N,1.2
1501304995.1,286046996.9,N,1.3
1501305015.9,286046997.8,N,1.4
1501305035.7,286046996.9,N,1.5
1501305055.5,286046997.1,N,1.5
1501305075.4,286046997.8,N,1.5
1501305095.2,286046995.6,N,1.7
1501305115.1,286046995.9,N,1.8
1501305116.0,286046995.9,N,1.8
1501305135.8,286046995.5,N,1.9
1501305155.6,286046995.7,N,2.0
1501305175.5,286046996.0,N,2.0
1501305195.3,286046995.8,N,2.0
1501305215.1,286046995.2,N,2.1
1501305235.9,286046993.5,P,2.4
1501305255.7,286046995.0,N,2.0
1501305275.6,286046995.3,N,1.7
1501305295.4,286046995.1,N,1.5
1501305315.3,286046995.9,N,1.4
1501305335.1,286046993.5,P,1.0
1501305336.0,286046993.5,P,0.9
1501305355.8,286047001.2,N,3.2
1501305375.7,286046998.5,N,3.0
1501305395.5,286047000.3,N,3.1
1501305415.4,286046998.5,N,2.9
1501305435.2,286046998.6,N,2.8
1501305455.0,286046998.8,N,2.6
1501305486.0,286046999.2,E,nan
1501305495.9,286046998.2,N,0.0
1501305515.7,286046998.5,P,0.2
1501305535.6,286046999.4,P,0.5
1501305555.4,286046996.9,P,0.9
1501305575.2,286046999.5,N,1.1
1501305595.1,286046998.9,N,1.0
1501305596.0,286046998.9,N,0.9
1501305615.8,286046998.7,N,0.8
1501305635.7,286046998.8,N,0.7
1501305655.5,286046999.3,N,0.7
1501305675.4,286046996.5,P,1.1
1501305695.2,286046998.6,N,1.0
1501305715.0,286047000.7,N,1.5
1501305715.9,286047000.7,N,1.6
1501305735.8,286047000.6,N,1.5
1501305755.6,286046998.2,N,1.5
1501305775.4,286047001.0,N,1.5
1501305795.3,286047000.3,N,1.5
1501305815.1,286047001.0,N,1.5
1501305835.9,286047001.0,N,1.4
1501305855.7,286047001.2,N,1.4
1501305875.6,286047000.6,N,1.4
1501305895.4,286047000.7,N,1.4
1501305915.2,286047000.8,N,1.3
1501305935.1,286047001.1,N,1.3
1501305936.0,286047001.1,N,1.3
1501305955.8,286047001.0,N,1.3
1501305975.7,286047001.0,N,1.2
1501305995.5,286047000.8,N,1.2
1501306015.3,286047000.8,N,1.2
1501306035.2,286047000.8,N,1.2
1501306055.0,286046998.2,N,1.2
1501306055.9,286046998.2,N,1.3
1501306075.8,286046998.2,N,1.3
1501306095.6,286047001.2,N,1.3
1501306115.4,286046998.3,N,1.3
1501306135.3,286046998.4,N,1.3
1501306155.1,286046998.9,N,1.3
1501306175.9,286047000.3,N,1.3
1501306195.7,286046998.2,N,1.3
1501306215.5,286046998.2,N,1.2
1501306235.4,286047000.8,N,1.2
1501306255.2,286047000.7,N,1.2
1501306275.1,286046998.7,N,1.2
1501306276.0,286046998.7,N,1.2
1501306295.8,286047000.8,N,1.2
1501306315.6,286046998.1,N,1.2
1501306335.5,286047000.8,N,1.2
1501306355.3,286047002.4,N,1.3
1501306375.2,286047000.4,N,1.3
1501306395.9,286046999.7,N,1.3
1501306415.7,286047000.9,N,1.3
1501306435.6,286047000.1,N,1.3
1501306455.4,286046999.8,N,1.2
1501306475.3,286047000.6,N,1.2
1501306495.1,286047001.4,N,1.2
1501306496.0,286047001.4,N,1.3
1501306515.8,286047003.5,N,1.4
1501306535.7,286047002.4,N,1.5
1501306555.5,286047004.4,N,1.7
1501306575.4,286047002.6,N,1.7
1501306595.2,286047002.5,N,1.7
1501306615.0,286047001.6,N,1.7
1501306615.9,286047001.6,N,1.6
1501306635.8,286047001.5,N,1.6
1501306655.6,286047001.6,N,1.6
1501306675.5,286047001.9,P,0.6
1501306695.3,286047002.0,P,0.6
1501306715.1,286047001.4,N,0.5
1501306735.9,286047002.5,P,0.5
1501306755.7,286047001.1,N,0.6
1501306775.6,286047000.9,N,0.6
1501306795.4,286046999.9,N,0.8
1501306815.2,286047002.2,P,0.5
1501306835.1,286047000.7,N,0.6
1501306836.0,286047000.7,N,0.6
1501306855.8,286047000.1,N,0.7
1501306875.7,286047000.0,N,0.7
1501306895.5,286047000.4,N,0.7
1501306915.3,286047000.1,N,0.7
1501306935.2,286047000.1,N,0.7
1501306955.0,286047002.0,N,0.8
1501306955.9,286047002.0,N,0.8
1501306975.8,286047002.6,P,0.9
1501306995.6,286046998.2,N,1.8
1501307015.5,286046999.8,N,1.6
1501307035.3,286047000.1,N,1.4
1501307055.1,286047000.4,N,1.3
1501307075.9,286047000.4,N,1.2
1501307095.7,286047000.4,N,1.1
1501307115.5,286046999.7,N,1.1
1501307135.4,286047000.1,N,1.0
1501307155.2,286047002.5,N,1.2
1501307175.1,286046999.7,N,1.1
1501307176.0,286046999.7,N,1.1
1501307195.8,286047002.8,N,1.3
1501307215.6,286046999.8,N,1.2
1501307235.5,286047002.2,N,1.3
1501307255.3,286047002.0,N,1.3
1501307275.2,286046999.9,N,1.2
1501307295.9,286047000.3,N,1.2
1501307315.7,286046999.8,N,1.2
1501307335.6,286047002.7,N,1.2
1501307355.4,286046999.8,N,1.2
1501307375.3,286047001.8,N,1.2
1501307395.1,286047001.7,N,1.2
1501307396.0,286047001.7,N,1.2
1501307415.8,286047001.4,N,1.2
1501307435.7,286047001.6,N,1.2
1501307455.5,286047004.4,P,1.8
1501307475.4,286047001.9,N,1.5
1501307495.2,286047002.2,N,1.3
1501307515.0,286047002.4,N,1.2
1501307515.9,286047002.4,N,1.1
1501307535.8,286046999.7,N,1.4
1501307555.6,286047004.1,P,1.1
1501307575.5,286047000.5,N,1.5
1501307595.3,286046999.2,N,1.8
1501307615.1,286046998.9,N,1.9
1501307635.9,286046998.9,N,1.9
1501307655.7,286046998.3,N,1.9
1501307675.5,286047000.6,N,1.8
1501307695.4,286047000.9,N,1.7
1501307715.2,286047000.9,N,1.6
1501307735.1,286046998.5,N,1.7
1501307736.0,286046998.5,N,1.7
1501307755.8,286046998.2,N,1.7
1501307775.7,286046998.2,N,1.7
1501307795.5,286046998.6,N,1.7
1501307815.3,286046998.2,N,1.6
1501307835.2,286046999.3,N,1.6
1501307855.0,286046998.7,N,1.6
1501307855.9,286046998.7,N,1.5
1501307875.8,286047000.7,N,1.5
1501307895.6,286047001.2,N,1.5
1501307915.4,286047001.2,N,1.5
1501307935.3,286046998.2,N,1.5
1501307955.1,286046998.6,N,1.5
1501307975.8,286047000.8,N,1.5
1501307995.7,286047001.2,N,1.5
